Fitchburg, MA

12:49 PM EDT on July 17, 2019 (GMT -0400)
Fitchburg Municipal

Weather History for KFIT - May, 2019

Change the Weather History Date:

Wednesday, May 29, 2019

  Actual Average (KORH) Record (KORH)
Temperature  
Mean Temperature 50 °F -  
Max Temperature 55 °F 71 °F 91 °F (1931)
Min Temperature 45 °F 51 °F 33 °F (1900)
Degree Days  
Heating Degree Days 15    
Moisture  
Dew Point 44 °F    
Average Humidity 81    
Maximum Humidity 93    
Minimum Humidity 69    
Precipitation  
Precipitation 0.00 in - - ()
Sea Level Pressure  
Sea Level Pressure 29.80 in    
Wind  
Wind Speed 7 mph (NE)    
Max Wind Speed 9 mph    
Max Gust Speed -    
Visibility 10 miles    
Events      
Averages and records for this station are not official NWS values.
T = Trace of Precipitation, MM = Missing Value Source: NWS Daily Summary

Daily Weather History Graph

Daily Weather History Graph

Search for Another Location

Airport or City:

Astronomy

May. 29, 2019 Rise Set
Actual Time 5:13 AM EDT 8:15 PM EDT
Civil Twilight 4:40 AM EDT 8:49 PM EDT
Nautical Twilight 3:57 AM EDT 9:32 PM EDT
Astronomical Twilight 3:06 AM EDT 10:23 PM EDT
Moon 2:59 AM EDT (5/29) 3:12 PM EDT (5/29)
Length of Visible Light 16h 09m
Length of Day
15h 01m
Waning Crescent, 23% of the Moon is Illuminated
May 29
Waning Crescent
Jun 3
New
Jun 10
First Quarter
Jun 17
Full
Jun 25
Last Quarter

Hourly Weather History & Observations

Time (EDT) Temp. Windchill Dew Point Humidity Pressure Visibility Wind Dir Wind Speed Gust Speed Precip Events Conditions
12:52 AM 45.0 °F 40.1 °F 42.1 °F 90% 29.76 in 4.0 mi North 9.2 mph - N/A   Overcast
1:52 AM 45.0 °F 42.6 °F 42.1 °F 90% 29.76 in 9.0 mi NNW 4.6 mph - N/A   Overcast
2:52 AM 45.0 °F 40.6 °F 42.1 °F 90% 29.77 in 10.0 mi NNW 8.1 mph - N/A   Overcast
3:52 AM 45.0 °F 41.2 °F 42.1 °F 90% 29.77 in 10.0 mi North 6.9 mph - N/A   Overcast
4:52 AM 45.0 °F 41.8 °F 42.1 °F 90% 29.77 in 10.0 mi NNW 5.8 mph - N/A   Overcast
5:52 AM 45.0 °F 40.1 °F 43.0 °F 93% 29.78 in 7.0 mi North 9.2 mph - N/A   Overcast
6:52 AM 46.0 °F 41.9 °F 43.0 °F 89% 29.79 in 10.0 mi North 8.1 mph - N/A   Overcast
7:52 AM 46.9 °F - 43.0 °F 86% 29.82 in 10.0 mi NNE 4.6 mph - N/A   Overcast
8:52 AM 46.9 °F - 43.0 °F 86% 29.83 in 10.0 mi North 5.8 mph - N/A   Overcast
9:52 AM 48.0 °F - 43.0 °F 83% 29.82 in 10.0 mi North 6.9 mph - N/A   Overcast
10:07 AM 48.9 °F - 43.0 °F 80% 29.81 in 10.0 mi North 6.9 mph - N/A   Overcast
10:52 AM 50.0 °F - 43.0 °F 77% 29.81 in 10.0 mi NE 8.1 mph - N/A   Overcast
11:52 AM 51.1 °F - 44.1 °F 77% 29.82 in 10.0 mi Variable 4.6 mph - N/A   Overcast
12:09 PM 51.1 °F - 44.1 °F 77% 29.82 in 10.0 mi Variable 6.9 mph - N/A   Overcast
12:52 PM 52.0 °F - 45.0 °F 77% 29.83 in 10.0 mi NE 4.6 mph - N/A   Overcast
1:52 PM 53.1 °F - 45.0 °F 74% 29.81 in 10.0 mi East 5.8 mph - N/A   Overcast
2:52 PM 54.0 °F - 45.0 °F 72% 29.81 in 10.0 mi South 3.5 mph - N/A   Overcast
3:52 PM 55.0 °F - 46.0 °F 72% 29.80 in 10.0 mi East 4.6 mph - N/A   Overcast
4:52 PM 55.9 °F - 46.0 °F 69% 29.77 in 10.0 mi Variable 4.6 mph - N/A   Overcast
5:52 PM 55.0 °F - 46.0 °F 72% 29.79 in 10.0 mi East 5.8 mph - N/A   Overcast
6:52 PM 54.0 °F - 46.0 °F 75% 29.79 in 10.0 mi ESE 6.9 mph - N/A   Overcast
7:52 PM 53.1 °F - 46.0 °F 77% 29.78 in 10.0 mi ESE 5.8 mph - 0.00 in   Overcast
8:52 PM 52.0 °F - 46.0 °F 80% 29.80 in 10.0 mi ESE 4.6 mph - N/A   Overcast
9:04 PM 52.0 °F - 46.0 °F 80% 29.79 in 10.0 mi ESE 4.6 mph - N/A   Overcast
9:39 PM 52.0 °F - 46.0 °F 80% 29.80 in 10.0 mi SE 6.9 mph - N/A   Overcast
9:52 PM 52.0 °F - 46.0 °F 80% 29.83 in 10.0 mi Variable 3.5 mph - N/A   Overcast
10:16 PM 51.1 °F - 46.0 °F 83% 29.81 in 10.0 mi ESE 4.6 mph - N/A   Overcast
10:52 PM 51.1 °F - 46.0 °F 83% 29.80 in 10.0 mi SE 8.1 mph - N/A   Overcast
11:52 PM 51.1 °F - 46.0 °F 83% 29.80 in 10.0 mi SSE 9.2 mph - N/A   Overcast